Total_Precipitation_Accumulation
0.01 0.01 0.02 0.01 0.01 0.01 0.02 0.04 0.06 0.05 0.02 0.00 0.00 0.00 0.00 0.00 0.00 0.01 0.04 0.05 0.04 0.04 0.04 0.03 0.03 0.03 0.03 0.03 0.04 0.04 0.05 0.05 0.07 0.09 0.12 0.18 0.24 0.31
0.01 0.02 0.02 0.02 0.03 0.04 0.05 0.05 0.06 0.08 0.06 0.02 0.01 0.01 0.02 0.02 0.01 0.03 0.06 0.06 0.05 0.04 0.04 0.04 0.05 0.05 0.05 0.05 0.06 0.07 0.07 0.06 0.06 0.07 0.09 0.11 0.16 0.22
0.02 0.02 0.04 0.05 0.06 0.06 0.06 0.05 0.06 0.09 0.11 0.05 0.02 0.03 0.06 0.08 0.09 0.12 0.12 0.13 0.11 0.08 0.07 0.08 0.08 0.08 0.08 0.09 0.10 0.10 0.11 0.11 0.11 0.10 0.10 0.11 0.12 0.14
0.03 0.04 0.05 0.05 0.07 0.07 0.06 0.06 0.07 0.10 0.13 0.11 0.08 0.07 0.10 0.13 0.14 0.15 0.08 0.06 0.11 0.09 0.08 0.09 0.10 0.12 0.12 0.13 0.12 0.11 0.09 0.08 0.08 0.09 0.11 0.12 0.13 0.14
0.03 0.04 0.05 0.05 0.06 0.06 0.06 0.06 0.07 0.09 0.14 0.18 0.15 0.13 0.12 0.10 0.13 0.11 0.11 0.16 0.11 0.08 0.08 0.08 0.09 0.09 0.08 0.07 0.07 0.07 0.06 0.04 0.04 0.05 0.07 0.10 0.12 0.14
0.03 0.03 0.04 0.04 0.05 0.06 0.06 0.07 0.11 0.15 0.17 0.20 0.17 0.12 0.10 0.08 0.14 0.14 0.13 0.13 0.12 0.09 0.09 0.07 0.07 0.05 0.04 0.03 0.04 0.05 0.05 0.05 0.06 0.06 0.06 0.06 0.06 0.07
0.02 0.02 0.03 0.04 0.05 0.06 0.07 0.10 0.16 0.20 0.20 0.21 0.17 0.12 0.09 0.10 0.14 0.16 0.16 0.11 0.08 0.07 0.08 0.06 0.06 0.06 0.06 0.05 0.04 0.04 0.04 0.03 0.04 0.04 0.05 0.04 0.04 0.04
0.03 0.03 0.03 0.03 0.03 0.03 0.06 0.11 0.17 0.21 0.21 0.22 0.19 0.16 0.12 0.14 0.19 0.22 0.21 0.21 0.17 0.11 0.13 0.08 0.07 0.07 0.08 0.10 0.10 0.07 0.05 0.04 0.03 0.03 0.03 0.04 0.04 0.03
0.05 0.06 0.04 0.02 0.04 0.07 0.07 0.07 0.08 0.10 0.16 0.24 0.24 0.21 0.19 0.21 0.31 0.32 0.31 0.30 0.25 0.18 0.22 0.17 0.11 0.11 0.10 0.10 0.12 0.11 0.08 0.08 0.06 0.03 0.02 0.02 0.04 0.04
0.05 0.06 0.06 0.06 0.06 0.07 0.06 0.05 0.05 0.05 0.09 0.14 0.22 0.21 0.20 0.24 0.34 0.38 0.36 0.33 0.25 0.20 0.29 0.29 0.17 0.14 0.11 0.16 0.20 0.16 0.12 0.14 0.12 0.05 0.03 0.02 0.02 0.04
0.03 0.04 0.05 0.07 0.07 0.08 0.07 0.07 0.06 0.06 0.07 0.15 0.22 0.27 0.32 0.38 0.41 0.42 0.43 0.42 0.33 0.25 0.34 0.39 0.29 0.22 0.16 0.21 0.24 0.21 0.20 0.26 0.24 0.12 0.05 0.03 0.03 0.03
0.02 0.04 0.07 0.07 0.07 0.07 0.06 0.09 0.12 0.11 0.14 0.20 0.33 0.51 0.57 0.55 0.50 0.45 0.45 0.44 0.42 0.44 0.42 0.44 0.38 0.29 0.24 0.23 0.24 0.25 0.29 0.41 0.41 0.25 0.12 0.07 0.07 0.06
0.04 0.06 0.09 0.08 0.06 0.06 0.07 0.11 0.17 0.17 0.20 0.31 0.47 0.56 0.54 0.43 0.36 0.33 0.34 0.39 0.45 0.52 0.46 0.45 0.40 0.34 0.36 0.31 0.23 0.29 0.38 0.50 0.51 0.39 0.22 0.15 0.12 0.11
0.06 0.08 0.11 0.10 0.09 0.10 0.12 0.15 0.19 0.24 0.31 0.41 0.50 0.48 0.39 0.30 0.26 0.25 0.25 0.28 0.34 0.39 0.37 0.38 0.40 0.36 0.37 0.32 0.28 0.35 0.48 0.61 0.64 0.52 0.35 0.29 0.19 0.16
0.07 0.11 0.14 0.15 0.17 0.21 0.23 0.22 0.25 0.32 0.36 0.42 0.46 0.42 0.33 0.26 0.22 0.19 0.19 0.23 0.26 0.28 0.27 0.28 0.30 0.32 0.36 0.37 0.42 0.51 0.62 0.79 0.78 0.63 0.50 0.40 0.25 0.18
0.06 0.13 0.22 0.27 0.29 0.31 0.33 0.34 0.35 0.36 0.37 0.39 0.37 0.31 0.25 0.21 0.18 0.17 0.19 0.21 0.24 0.27 0.26 0.25 0.28 0.35 0.43 0.47 0.54 0.62 0.65 0.84 0.87 0.73 0.63 0.56 0.45 0.35
0.05 0.12 0.22 0.28 0.29 0.28 0.27 0.29 0.31 0.32 0.32 0.29 0.28 0.24 0.21 0.18 0.18 0.17 0.18 0.18 0.22 0.27 0.27 0.26 0.28 0.31 0.34 0.39 0.48 0.54 0.60 0.72 0.83 0.75 0.62 0.69 0.74 0.58
0.08 0.15 0.24 0.30 0.32 0.30 0.27 0.24 0.24 0.25 0.26 0.26 0.24 0.22 0.21 0.19 0.19 0.19 0.17 0.16 0.19 0.21 0.23 0.23 0.22 0.20 0.18 0.24 0.49 0.57 0.58 0.73 0.80 0.67 0.56 0.66 0.82 0.71
0.09 0.16 0.24 0.30 0.32 0.29 0.27 0.25 0.25 0.24 0.23 0.23 0.23 0.21 0.20 0.19 0.17 0.17 0.16 0.15 0.17 0.18 0.18 0.16 0.15 0.13 0.11 0.23 0.48 0.71 0.67 0.68 0.67 0.60 0.52 0.52 0.70 0.75
0.14 0.19 0.23 0.27 0.30 0.30 0.27 0.23 0.21 0.21 0.20 0.19 0.20 0.21 0.20 0.18 0.16 0.16 0.16 0.15 0.15 0.14 0.13 0.13 0.15 0.16 0.15 0.20 0.45 0.69 0.76 0.59 0.49 0.51 0.51 0.49 0.60 0.65
0.17 0.20 0.22 0.22 0.24 0.25 0.26 0.25 0.22 0.20 0.19 0.18 0.18 0.19 0.19 0.17 0.16 0.14 0.13 0.11 0.12 0.10 0.11 0.13 0.16 0.16 0.09 0.07 0.24 0.46 0.61 0.72 0.59 0.49 0.47 0.45 0.41 0.35
0.16 0.19 0.20 0.20 0.21 0.20 0.19 0.18 0.18 0.17 0.15 0.16 0.18 0.19 0.18 0.16 0.14 0.13 0.12 0.11 0.10 0.09 0.10 0.11 0.11 0.08 0.06 0.09 0.22 0.38 0.44 0.45 0.47 0.50 0.49 0.34 0.21 0.22
0.17 0.17 0.17 0.18 0.17 0.15 0.12 0.11 0.11 0.12 0.12 0.14 0.16 0.17 0.16 0.13 0.11 0.09 0.07 0.06 0.05 0.05 0.05 0.05 0.06 0.05 0.05 0.06 0.12 0.19 0.21 0.18 0.13 0.16 0.32 0.37 0.28 0.27